FW1217 Weather Reports


time (UTC)temp
F
wind
direction
speed
knots
gust
knots
rain 1hr
in
rain 24hr
in
rain mn
in
humidity
%
barometer
mb
20260507053010 42 223 0.0 0.0 0.00 0.22 0.00 88 1015.8
20260507051507 43 223 0.0 0.0 0.00 0.22 0.00 88 1016.0
20260507050034 43 223 0.0 0.0 0.00 0.22 0.00 88 1015.8
20260507044513 43 223 0.0 0.0 0.00 0.22 0.00 87 1016.0
20260507043010 44 223 0.0 0.0 0.00 0.22 0.00 86 1015.9
20260507041511 44 223 0.0 0.0 0.00 0.22 0.00 85 1015.6
20260507040007 44 223 0.0 0.0 0.00 0.25 0.22 84 1015.8
20260507034510 45 223 0.0 0.0 0.00 0.25 0.22 83 1015.8
20260507033007 45 223 0.0 0.0 0.00 0.25 0.22 82 1016.0
20260507031507 46 223 0.0 0.0 0.00 0.25 0.22 80 1016.1
20260507030007 47 223 0.0 0.0 0.00 0.28 0.22 78 1016.0
20260507024507 48 223 0.0 0.0 0.00 0.28 0.22 76 1016.1
20260507023010 49 223 0.0 0.0 0.00 0.28 0.22 74 1016.0
20260507021517 50 223 0.0 0.0 0.00 0.28 0.22 72 1015.9
20260507020026 50 223 0.0 0.0 0.00 0.36 0.22 70 1015.6
20260507014507 50 223 0.0 0.0 0.00 0.36 0.22 69 1015.4
20260507013008 50 223 0.0 0.0 0.00 0.36 0.22 70 1015.5
20260507011516 50 223 0.0 0.0 0.00 0.36 0.22 69 1015.5
20260507010021 51 223 0.0 0.9 0.00 0.37 0.22 67 1015.4
20260507004507 51 223 0.0 2.6 0.00 0.37 0.22 65 1015.1
20260507003009 52 223 0.0 1.7 0.00 0.37 0.22 63 1014.8
20260507001508 53 221 0.9 3.5 0.00 0.37 0.22 60 1014.6
20260507000005 54 245 3.5 6.1 0.00 0.37 0.22 58 1014.5
20260506234509 54 252 1.7 6.1 0.00 0.37 0.22 58 1014.4
20260506233008 55 193 1.7 3.5 0.00 0.37 0.22 58 1014.4
20260506231511 55 258 1.7 4.3 0.00 0.37 0.22 57 1014.4
20260506230010 55 248 0.9 4.3 0.00 0.39 0.22 57 1014.5
20260506224508 56 251 3.5 7.0 0.00 0.39 0.22 56 1014.9
20260506223015 55 264 1.7 5.2 0.00 0.39 0.22 59 1014.9
20260506221509 56 257 2.6 7.8 0.00 0.39 0.22 58 1014.9
20260506220022 56 231 0.9 7.0 0.00 0.47 0.22 58 1014.8
20260506214510 57 271 2.6 7.8 0.00 0.47 0.22 55 1014.2
20260506213007 56 236 3.5 7.8 0.00 0.47 0.22 57 1014.1
20260506211509 56 284 2.6 7.0 0.00 0.47 0.22 60 1013.8
20260506210007 56 224 0.9 4.3 0.00 0.47 0.22 60 1013.8
20260506204507 57 265 2.6 7.0 0.00 0.47 0.22 59 1013.7
20260506203021 57 331 3.5 7.0 0.00 0.47 0.22 58 1013.7
20260506201511 59 227 2.6 7.8 0.00 0.47 0.22 59 1013.6
20260506200010 59 234 3.5 7.8 0.00 0.47 0.22 57 1013.4
20260506194512 60 267 1.7 7.0 0.00 0.47 0.22 58 1013.4
20260506193005 59 237 2.6 8.7 0.00 0.47 0.22 56 1013.5
20260506191511 59 238 3.5 7.0 0.00 0.47 0.22 57 1013.3
20260506190008 60 32 1.7 7.8 0.00 0.47 0.22 60 1013.2
20260506184511 60 250 2.6 9.6 0.00 0.47 0.22 58 1013.5
20260506183009 59 205 1.7 6.1 0.00 0.47 0.22 59 1013.4
20260506181528 58 245 1.7 10.4 0.00 0.47 0.22 60 1013.6
20260506180009 59 250 1.7 9.6 0.00 0.47 0.22 59 1013.7
20260506174508 58 277 4.3 9.6 0.00 0.47 0.22 57 1013.6
20260506173005 57 216 1.7 9.6 0.00 0.47 0.22 62 1013.7
20260506171512 58 123 1.7 5.2 0.00 0.47 0.22 60 1013.7
20260506170026 57 298 2.6 9.6 0.00 0.47 0.22 63 1013.9
20260506164509 57 184 1.7 7.0 0.00 0.47 0.22 66 1013.5
20260506163008 57 65 2.6 7.8 0.00 0.47 0.22 64 1013.7
20260506161534 56 249 2.6 6.1 0.00 0.47 0.22 63 1013.8
20260506160010 56 239 0.9 5.2 0.00 0.47 0.22 71 1013.6
20260506154531 55 121 1.7 7.8 0.00 0.47 0.22 72 1013.6
20260506153008 53 211 0.9 7.0 0.00 0.47 0.22 71 1013.2
20260506151507 53 249 3.5 7.0 0.00 0.47 0.22 72 1012.9
20260506150031 52 234 1.7 6.1 0.00 0.47 0.22 73 1012.8
20260506144511 52 247 0.9 6.1 0.00 0.47 0.22 77 1012.9
20260506143030 51 322 1.7 7.0 0.00 0.47 0.22 79 1012.8
20260506141506 50 223 0.9 7.0 0.00 0.47 0.22 80 1012.8
20260506140011 50 246 2.6 6.1 0.00 0.47 0.22 81 1012.5
20260506134527 49 211 0.9 4.3 0.00 0.47 0.22 83 1011.9
20260506133011 48 38 0.9 7.0 0.00 0.47 0.22 84 1011.6
20260506131528 48 290 1.7 7.0 0.00 0.47 0.22 88 1011.6
20260506130025 47 246 1.7 7.8 0.00 0.47 0.22 90 1011.6
20260506124508 47 191 1.7 4.3 0.00 0.47 0.22 91 1011.4
20260506123028 47 239 2.6 7.0 0.00 0.47 0.22 92 1011.4
20260506121508 46 57 0.0 4.3 0.00 0.47 0.22 93 1010.6
20260506120007 46 203 1.7 4.3 0.00 0.47 0.22 93 1010.5
20260506114538 46 192 0.9 5.2 0.00 0.47 0.22 93 1010.5
20260506113009 46 234 1.7 7.0 0.00 0.47 0.22 93 1010.2
20260506111509 46 194 1.7 4.3 0.00 0.47 0.22 93 1010.1
20260506110007 46 194 1.7 5.2 0.00 0.47 0.22 93 1009.4
20260506104508 46 246 1.7 7.0 0.00 0.47 0.22 93 1009.2
20260506103026 46 209 0.9 5.2 0.00 0.47 0.22 93 1009.2
20260506101513 46 232 0.0 2.6 0.00 0.47 0.22 93 1009.2
20260506100026 46 186 1.7 4.3 0.00 0.47 0.22 93 1008.8
20260506094524 46 226 0.9 4.3 0.00 0.47 0.22 93 1008.3
20260506093008 46 169 0.0 6.1 0.02 0.47 0.22 94 1008.3
20260506091528 46 211 1.7 7.0 0.03 0.47 0.22 93 1008.5
20260506090009 46 195 0.9 8.7 0.04 0.47 0.22 93 1008.2
20260506084516 46 201 2.6 7.8 0.06 0.47 0.22 93 1008.0
20260506083026 46 229 1.7 8.7 0.04 0.45 0.20 93 1008.3
20260506081509 46 200 1.7 7.8 0.04 0.44 0.19 93 1008.3
20260506073025 47 209 1.7 7.0 0.04 0.41 0.16 94 1007.4
20260506071523 47 248 2.6 7.8 0.05 0.40 0.15 93 1007.3
20260506061525 49 198 1.7 7.0 0.09 0.35 0.10 93 1007.5